[[{"header":{"parameterUnit":"m.s-1","parameterCategory":1,"la1":30.2991,"la2":30.254,"lo1":-89.0895,"lo2":-89.0444,"dy":0.0017,"dx":0.0017,"nx":28,"ny":28,"refTime":"2025-04-22T03:00:00:Z","depth":0,"parameterNumber":2,"parameterNumberName":"U-component_of_WINDS"},"data":[0,0,0,0,0,0,0,0,0,0,0,0,0,0,0,0,0,0,0,0,0,0,0,0,0,0,0,0,0,0,0,0,0,0,0,0,0,0,0,0,0,0,0,0,0,0,0,0,0,0,0,0,0,0,0,0,0,0,-0.5492,-0.5492,0,-0.5519,-0.552,-0.552,-0.5554,-0.5555,-0.5556,-0.5556,-0.5584,-0.5584,-0.5584,0,0,0,0,0,0,0,0,0,0,0,0,0,-0.5469,-0.547,-0.5492,-0.5492,-0.5493,-0.5519,-0.552,-0.552,-0.5554,-0.5555,-0.5556,-0.5556,-0.5584,-0.5584,-0.5585,0,0,0,0,0,0,0,0,0,0,0,0,0,-0.5486,-0.547,-0.5492,-0.5513,-0.5515,-0.5519,-0.552,-0.552,-0.5554,-0.5555,-0.5556,-0.5557,-0.5584,-0.5584,-0.5585,-0.557,0,0,-0.5586,-0.5586,0,0,0,0,0,0,0,0,-0.5485,-0.5487,-0.551,-0.5512,-0.5514,-0.5534,-0.5522,-0.5537,-0.5554,-0.5539,-0.5556,-0.5557,-0.5567,-0.5569,-0.5572,-0.5571,-0.5572,-0.5586,-0.5586,-0.5586,-0.5586,0,0,0,0,0,0,0,-0.5484,-0.5486,-0.5503,-0.551,-0.5513,-0.5521,-0.5524,-0.5525,-0.5548,-0.5541,-0.5543,-0.5546,-0.5568,-0.5571,-0.5573,-0.5573,-0.5586,-0.5586,-0.5586,-0.5586,-0.556,-0.5559,0,0,0,0,0,0,-0.548,-0.5485,-0.5502,-0.5504,-0.5501,-0.5521,-0.5524,-0.5527,-0.5548,-0.5552,-0.5545,-0.5548,-0.5571,-0.5572,-0.5574,-0.5557,-0.5586,-0.5586,-0.5586,-0.5561,-0.556,-0.5559,0,0,0,0,0,0,-0.5479,-0.5481,-0.5501,-0.5495,-0.5498,-0.552,-0.5523,-0.5527,-0.553,-0.5552,-0.5556,-0.5544,-0.5571,-0.5573,-0.557,-0.5559,-0.5586,-0.5587,-0.5562,-0.5561,-0.556,-0.5524,0,0,0,0,0,0,-0.5478,-0.548,-0.5475,-0.5494,-0.5498,-0.5497,-0.5522,-0.5527,-0.5531,-0.5534,-0.5552,-0.5556,-0.5572,-0.557,-0.5571,-0.556,-0.5587,-0.5563,-0.5562,-0.556,-0.5526,-0.5522,-0.5518,0,0,0,0,0,-0.5477,-0.5464,-0.5475,-0.5477,-0.5492,-0.5496,-0.5498,-0.5517,-0.553,-0.5524,-0.5538,-0.5555,-0.556,-0.5569,-0.5571,-0.5559,-0.5564,-0.5562,-0.556,-0.5528,-0.5522,-0.5518,0,0,0,0,0,0,-0.5443,-0.5467,-0.5479,-0.5472,-0.5482,-0.5502,-0.5496,-0.5511,-0.5517,-0.552,-0.5543,-0.5547,-0.5541,-0.555,-0.556,-0.5546,-0.5565,-0.5563,-0.554,-0.5534,-0.553,-0.5528,-0.5587,0,0,0,0,0,-0.5435,-0.5436,-0.5457,-0.5449,-0.5453,-0.5473,-0.5476,-0.549,-0.5501,-0.5505,-0.5518,-0.5528,-0.5532,-0.5534,-0.5539,-0.5528,-0.5532,-0.5521,-0.5517,-0.5513,-0.5511,-0.5505,-0.55,-0.5553,-0.5553,-0.5553,0,0,-0.5417,-0.5431,-0.543,-0.5442,-0.5451,-0.5451,-0.5477,-0.5476,-0.5477,-0.5505,-0.5502,-0.5513,-0.5525,-0.5518,-0.5516,-0.5526,-0.5497,-0.5511,-0.5507,-0.5507,-0.5502,-0.5497,-0.5493,-0.5551,-0.5551,-0.5552,0,0,-0.5386,-0.5396,-0.539,-0.5399,-0.5412,-0.5426,-0.5424,-0.5442,-0.545,-0.5448,-0.5469,-0.547,-0.5476,-0.5484,-0.5488,-0.5459,-0.5474,-0.546,-0.5437,-0.5431,-0.5426,-0.5423,-0.5411,-0.5407,-0.5458,-0.5458,-0.5458,0,-0.5362,-0.5364,-0.5385,-0.5383,-0.5387,-0.5413,-0.5406,-0.5414,-0.5428,-0.543,-0.5441,-0.5449,-0.5459,-0.5453,-0.5446,-0.545,-0.5448,-0.5458,-0.5425,-0.5422,-0.5419,-0.5408,-0.5404,-0.5456,-0.5456,-0.5456,-0.5457,0,-0.5334,-0.5335,-0.5328,-0.534,-0.5344,-0.534,-0.536,-0.5361,-0.5375,-0.5387,-0.5384,-0.5398,-0.5405,-0.5405,-0.5418,-0.5401,-0.5406,-0.5421,-0.544,-0.5411,-0.5402,-0.5398,-0.5453,-0.5454,-0.5454,-0.5455,0,0,-0.5281,-0.5305,-0.5302,-0.5308,-0.5324,-0.5325,-0.5322,-0.5329,-0.5329,-0.5338,-0.5335,-0.5339,-0.5353,-0.5358,-0.5373,-0.5368,-0.5342,-0.5383,-0.5384,-0.5374,-0.5322,-0.531,-0.5305,-0.5353,-0.5352,-0.5352,-0.532,0,-0.5252,-0.5247,-0.5266,-0.5256,-0.5256,-0.5281,-0.5278,-0.5287,-0.5299,-0.53,-0.5313,-0.5315,-0.5334,-0.5337,-0.5333,-0.5346,-0.5332,-0.5349,-0.5349,-0.5349,-0.5344,-0.53,-0.5287,-0.5257,-0.5317,-0.5316,-0.5316,0,-0.5216,-0.5223,-0.5213,-0.5229,-0.523,-0.5227,-0.5235,-0.5236,-0.5248,-0.5256,-0.5262,-0.5278,-0.5276,-0.5295,-0.5291,-0.5302,-0.5304,-0.531,-0.531,-0.5309,-0.533,-0.5297,-0.5248,-0.5243,-0.531,-0.5311,-0.5311,0,-0.5177,-0.5184,-0.5178,-0.5183,-0.5202,-0.5199,-0.5207,-0.5219,-0.5222,-0.5228,-0.523,-0.5236,-0.5239,-0.5244,-0.5261,-0.5274,-0.5255,-0.5276,-0.5261,-0.5261,-0.5256,-0.5255,-0.5205,-0.5259,-0.5259,-0.5259,-0.5259,0,-0.5142,-0.5134,-0.5161,-0.5158,-0.515,-0.5171,-0.5163,-0.5174,-0.5184,-0.5183,-0.5205,-0.5203,-0.5227,-0.5228,-0.5242,-0.5236,-0.5237,-0.5244,-0.5247,-0.5241,-0.524,-0.5242,-0.5244,-0.5258,-0.5258,-0.5258,-0.5258,0,-0.5096,-0.5114,-0.5109,-0.5128,-0.5132,-0.5126,-0.5141,-0.5139,-0.5152,-0.5149,-0.515,-0.517,-0.5172,-0.5191,-0.5197,-0.5206,-0.5194,-0.5203,-0.519,-0.5192,-0.5176,-0.5177,-0.5124,-0.5118,-0.5176,-0.5176,-0.5175,0,-0.5072,-0.5066,-0.5084,-0.5085,-0.5091,-0.5092,-0.5095,-0.5116,-0.5118,-0.513,-0.5125,-0.5129,-0.5133,-0.5135,-0.515,-0.5155,-0.5163,-0.5144,-0.5163,-0.5157,-0.5161,-0.516,-0.5159,-0.5139,-0.5138,-0.5138,-0.5137,0,-0.5026,-0.5035,-0.5038,-0.5043,-0.5046,-0.5052,-0.5059,-0.5058,-0.5081,-0.5082,-0.5084,-0.5087,-0.5093,-0.5096,-0.5103,-0.5111,-0.5127,-0.5131,-0.5128,-0.5121,-0.5113,-0.5115,-0.5177,-0.5132,-0.5132,-0.5133,-0.5133,-0.5133,-0.4989,-0.4985,-0.4997,-0.4999,-0.5007,-0.5013,-0.5011,-0.5023,-0.5025,-0.5032,-0.5044,-0.5044,-0.5055,-0.5066,-0.5072,-0.5072,-0.5082,-0.5078,-0.5076,-0.5074,-0.5071,-0.5114,-0.5074,-0.5074,-0.5074,-0.5074,-0.5075,0,-0.4944,-0.4952,-0.4954,-0.4963,-0.4965,-0.498,-0.4989,-0.4989,-0.4988,-0.4997,-0.5,-0.5002,-0.5005,-0.502,-0.5025,-0.5022,-0.5029,-0.5022,-0.5022,-0.5023,-0.5062,-0.5064,-0.5016,-0.5016,-0.5016,-0.5016,-0.5016,-0.5016,-0.492,-0.4914,-0.4924,-0.4921,-0.493,-0.493,-0.4933,-0.4939,-0.4945,-0.4946,-0.4949,-0.4959,-0.497,-0.4975,-0.4978,-0.4982,-0.4982,-0.4972,-0.4979,-0.5015,-0.5021,-0.5026,-0.5028,-0.4973,-0.4972,-0.494,-0.4939,-0.4939]},{"header":{"parameterUnit":"m.s-1","parameterCategory":1,"la1":30.2991,"la2":30.254,"lo1":-89.0895,"lo2":-89.0444,"dy":0.0017,"dx":0.0017,"nx":28,"ny":28,"refTime":"2025-04-22T03:00:00:Z","depth":0,"parameterNumber":3,"parameterNumberName":"V-component_of_WINDS"},"data":[0,0,0,0,0,0,0,0,0,0,0,0,0,0,0,0,0,0,0,0,0,0,0,0,0,0,0,0,0,0,0,0,0,0,0,0,0,0,0,0,0,0,0,0,0,0,0,0,0,0,0,0,0,0,0,0,0,0,2.5925,2.5924,0,2.59,2.5899,2.5899,2.5855,2.5854,2.5853,2.5852,2.5826,2.5826,2.5826,0,0,0,0,0,0,0,0,0,0,0,0,0,2.5935,2.5935,2.5925,2.5924,2.5924,2.59,2.5899,2.5899,2.5855,2.5854,2.5853,2.5852,2.5826,2.5826,2.5826,0,0,0,0,0,0,0,0,0,0,0,0,0,2.5922,2.5935,2.5925,2.5899,2.5896,2.59,2.5899,2.5899,2.5855,2.5854,2.5852,2.5851,2.5826,2.5826,2.5826,2.5853,0,0,2.5827,2.5827,0,0,0,0,0,0,0,0,2.5923,2.5922,2.5903,2.5901,2.5898,2.5879,2.5893,2.5883,2.5855,2.5871,2.5852,2.5851,2.5845,2.5843,2.5841,2.5851,2.585,2.5827,2.5827,2.5827,2.5827,0,0,0,0,0,0,0,2.5924,2.5923,2.5915,2.5903,2.59,2.5889,2.5886,2.5891,2.5865,2.5869,2.5866,2.5864,2.5843,2.5841,2.584,2.585,2.5827,2.5827,2.5827,2.5827,2.5881,2.5883,0,0,0,0,0,0,2.5928,2.5924,2.5916,2.5914,2.5908,2.589,2.5886,2.5886,2.5865,2.586,2.5865,2.5862,2.5842,2.584,2.5839,2.5869,2.5827,2.5827,2.5827,2.588,2.5882,2.5883,0,0,0,0,0,0,2.5929,2.5928,2.5917,2.5918,2.5916,2.5891,2.5891,2.5886,2.5885,2.5861,2.5857,2.5868,2.5841,2.5839,2.585,2.5868,2.5827,2.5827,2.5878,2.588,2.5882,2.5929,0,0,0,0,0,0,2.5929,2.5929,2.5938,2.5919,2.5916,2.5928,2.5892,2.5887,2.5885,2.5881,2.5863,2.5859,2.5839,2.585,2.585,2.5867,2.5827,2.5877,2.5879,2.5882,2.5926,2.5932,2.5938,0,0,0,0,0,2.593,2.5952,2.5939,2.5938,2.5927,2.5929,2.5927,2.5904,2.5887,2.5896,2.5882,2.5859,2.5866,2.5851,2.5851,2.5869,2.5875,2.5878,2.5881,2.5923,2.5931,2.5938,0,0,0,0,0,0,2.5974,2.5949,2.5934,2.595,2.5942,2.5921,2.5932,2.5914,2.591,2.5906,2.5878,2.5874,2.5889,2.588,2.5864,2.5893,2.5867,2.587,2.5899,2.5906,2.5912,2.5915,2.5828,0,0,0,0,0,2.5986,2.5989,2.5967,2.5984,2.598,2.5957,2.5957,2.594,2.5931,2.5927,2.5913,2.5904,2.5904,2.5905,2.5903,2.5924,2.592,2.5936,2.5942,2.5948,2.5951,2.5962,2.5969,2.5893,2.5893,2.5893,0,0,2.601,2.5997,2.6,2.5992,2.5984,2.5988,2.5954,2.596,2.5963,2.5927,2.5937,2.5927,2.5915,2.5931,2.5938,2.5924,2.5971,2.5952,2.5956,2.5956,2.5966,2.5973,2.598,2.5895,2.5895,2.5894,0,0,2.6056,2.6046,2.6059,2.6052,2.604,2.6024,2.6028,2.601,2.6002,2.6011,2.5984,2.5988,2.5988,2.5981,2.5978,2.6023,2.6003,2.6023,2.6056,2.6067,2.6073,2.6078,2.6095,2.6101,2.6026,2.6027,2.6027,0,2.6088,2.6093,2.6069,2.6076,2.6074,2.6042,2.6056,2.6049,2.6037,2.6037,2.6021,2.6022,2.6012,2.6027,2.6038,2.6036,2.6039,2.6025,2.6074,2.6079,2.6084,2.6099,2.6106,2.6029,2.6029,2.6029,2.6028,0,2.6133,2.6137,2.6149,2.6139,2.6138,2.6148,2.6126,2.6128,2.6111,2.6098,2.6108,2.6095,2.6091,2.6094,2.6077,2.6106,2.6098,2.6079,2.6052,2.6094,2.6108,2.6114,2.6033,2.6032,2.6031,2.6031,0,0,2.6206,2.6183,2.6187,2.6183,2.6167,2.617,2.618,2.6176,2.6179,2.6172,2.6179,2.6181,2.6163,2.616,2.6143,2.6153,2.619,2.6132,2.6131,2.6144,2.6222,2.6237,2.6245,2.6177,2.6178,2.6179,2.6223,0,2.6249,2.6264,2.6243,2.6263,2.6267,2.6237,2.6245,2.6237,2.6225,2.6227,2.6213,2.6215,2.6191,2.6189,2.6198,2.6184,2.6206,2.618,2.6184,2.6184,2.6188,2.6252,2.6267,2.631,2.6229,2.623,2.623,0,2.6302,2.6298,2.6318,2.6302,2.6303,2.6311,2.6307,2.6308,2.6299,2.6289,2.6286,2.6266,2.6275,2.6249,2.6261,2.6244,2.6244,2.6238,2.6239,2.6239,2.621,2.6254,2.6323,2.633,2.6239,2.6238,2.6237,0,2.6354,2.6354,2.6366,2.6363,2.6344,2.6351,2.6344,2.6333,2.6332,2.6328,2.6328,2.6325,2.6323,2.6322,2.6302,2.6285,2.6317,2.6289,2.631,2.631,2.6318,2.6318,2.6389,2.6318,2.6317,2.6317,2.6317,0,2.6405,2.6419,2.6389,2.6397,2.6412,2.6387,2.6403,2.6392,2.6383,2.6389,2.6363,2.6368,2.6341,2.6345,2.6329,2.6342,2.6341,2.6334,2.633,2.6337,2.6338,2.6337,2.6334,2.6319,2.6319,2.6318,2.6318,0,2.6466,2.6447,2.6458,2.644,2.6436,2.6448,2.6432,2.6439,2.6425,2.6433,2.6433,2.6412,2.6414,2.6394,2.6393,2.6382,2.6403,2.6393,2.6406,2.6403,2.6425,2.6424,2.6499,2.6508,2.643,2.6431,2.6432,0,2.65,2.651,2.6493,2.6495,2.6489,2.6492,2.6492,2.6468,2.6469,2.6459,2.6467,2.6467,2.6466,2.6472,2.6456,2.6455,2.6446,2.6472,2.6445,2.6452,2.6447,2.6447,2.6448,2.6478,2.6479,2.6479,2.648,0,2.6563,2.6553,2.6553,2.655,2.6551,2.6547,2.6542,2.6545,2.652,2.6522,2.6524,2.6523,2.6522,2.6523,2.6519,2.6512,2.6492,2.6489,2.6493,2.6501,2.6508,2.6505,2.6422,2.6487,2.6486,2.6486,2.6485,2.6485,2.6611,2.6619,2.6609,2.661,2.6604,2.66,2.6606,2.6593,2.6595,2.6592,2.6578,2.6583,2.6574,2.6567,2.6561,2.6565,2.6552,2.6559,2.6561,2.6563,2.6568,2.6507,2.6564,2.6564,2.6564,2.6564,2.6563,0,2.6674,2.6666,2.6667,2.6661,2.6662,2.6644,2.6637,2.664,2.6645,2.6638,2.6637,2.664,2.6641,2.6626,2.6626,2.6632,2.6623,2.6632,2.6632,2.6631,2.6579,2.6575,2.664,2.664,2.664,2.6639,2.6639,2.6639,2.6706,2.6719,2.6708,2.6717,2.6709,2.6714,2.6712,2.6708,2.6703,2.6707,2.6708,2.6698,2.6688,2.6687,2.6687,2.6683,2.6684,2.6697,2.669,2.6641,2.6634,2.6627,2.6623,2.6697,2.6697,2.6741,2.6742,2.6742]}]]